Regional Weather Roundup
Issued by NWS Jackson, KY

Home | Current Version | Previous Version | Text Only | Print | Product List | Glossary Off
Versions: 1 2 3 4 5 6 7 8 9 10 11 12 13 14 15 16 17 18 19 20 21 22 23 24 25 26 27 28 29 30 31 32 33 34 35 36 37 38 39 40 41 42 43 44 45 46 47 48 49 50

000
ASUS43 KJKL 310411
RWRJKL

EAST KENTUCKY HOURLY WEATHER ROUNDUP
NATIONAL WEATHER SERVICE JACKSON KY
1200 AM EDT FRI OCT 31 2014

NOTE: "FAIR" INDICATES FEW OR NO CLOUDS BELOW 12,000 FEET WITH
NO SIGNIFICANT WEATHER AND/OR OBSTRUCTIONS TO VISIBILITY.

* THESE REPORTS ARE NOT UNDER NWS QUALITY CONTROL AND MAY NOT
  REPORT WEATHER SUCH AS PRECIPITATION AND FOG.

KYZ079-080-083-085-087-088-110-112-115-119-120-310500
...EASTERN KENTUCKY...

CITY           SKY/WX    TMP DP  RH WIND       PRES   REMARKS
JACKSON        PTCLDY    42  33  70 CALM      30.04F
SOMERSET*      CLEAR     41  36  81 CALM      30.06F
MIDDLESBORO*   PTCLDY    39  38  97 CALM      30.04S
HARLAN APT*    PTCLDY    41  39  93 CALM      30.03S
BLACK MTN*       N/A     39  34  81 S1          N/A
PIKEVILLE APT* CLEAR     41  34  75 E3        30.03F
BIG SANDY*     PTCLDY    38  35  89 NE3       30.04F
MOREHEAD APT*  CLOUDY    41  34  75 CALM      30.07F
$$

KYZ035-036-041-042-044-050-067-078-099-310500
...CENTRAL KENTUCKY...

CITY           SKY/WX    TMP DP  RH WIND       PRES   REMARKS
MT STERLING*   CLEAR     34  34 100 CALM      30.06S
FLEMING/MASON* CLEAR     37  34  87 E3        30.06F
DANVILLE*      PTCLDY    36  36 100 CALM      30.06S
RICHMOND*      CLEAR     39  34  81 CALM      30.04F
LEXINGTON      CLOUDY    43  36  76 E3        30.04F
FRANKFORT      CLOUDY    40  37  89 CALM      30.04F
$$

KYZ091>093-OHZ055-061-077-WVZ005-015-034-035-042-310500
...SOUTHERN OHIO/WEST VIRGINIA...

CITY           SKY/WX    TMP DP  RH WIND       PRES   REMARKS
COVINGTON      PTCLDY    43  35  73 CALM      30.04F
COLUMBUS       CLOUDY    47  35  63 CALM      30.04F
DAYTON         CLOUDY    41  35  79 SE5       30.06F
WILMINGTON     CLEAR     38  32  79 E3        30.04F
HUNTINGTON     PTCLDY    40  35  83 CALM      30.05F
CHARLESTON     MOCLDY    39  35  86 CALM      30.05F
PINEVILLE*     CLEAR     35  35 100 MISG      30.09F
BECKLEY        CLEAR     33  29  85 CALM      30.02F
BLUEFIELD      CLEAR     37  30  75 CALM      30.02F
$$

VAZ002-007-008-TNZ017-027-036-066-071-310500
...SOUTHWEST VIRGINIA/EAST TENNESSEE...

CITY           SKY/WX    TMP DP  RH WIND       PRES   REMARKS
WISE*          PTCLDY    37  32  81 NE3       30.02F
JONESVILLE*    PTCLDY    37  37 100 CALM      30.04F
ABINGDON*      CLEAR     41  37  84 CALM      30.01S
BRISTOL        PTCLDY    38  37  97 N3        30.02R
KNOXVILLE      PTCLDY    46  41  82 CALM      30.01S
OAK RIDGE      CLEAR     45  41  86 CALM      30.03F
CROSSVILLE     CLEAR     41  36  82 CALM      30.03F
NASHVILLE      MOCLDY    50  44  80 CALM      30.05R
$$

...KEY TO REMARKS...
VSB - VISIBILITY IN MILES
WCI - WIND CHILL INDEX
HX  - HEAT INDEX

$$



USA.gov is the U.S. government's official web portal to all federal, state and local government web resources and services.